Location: Aufkirchen
(47.9603°N, 11.3653°E)
Time: 04:55:01
(UTC+01:00)

Vanguard 3 - Pass Details

Date: 01 December 2020
Orbit: 508 x 3262 km, 33.3° (Epoch: 23 January)

Event Time Altitude Azimuth Distance (km) Brightness Sun altitude
Rises 21:46:26 0° 230° (SW) 2,597 - -52.2°
Reaches altitude 10° 21:50:13 10° 188° (S) 1,769 - -52.8°
Maximum altitude 21:51:07 11° 174° (S) 1,765 - -52.9°
Drops below altitude 10° 21:52:02 10° 161° (SSE) 1,855 - -53.0°
Sets 21:56:32 0° 122° (ESE) 3,118 - -53.7°
